sat.trackr.live / text

‹ back to catalog

STARLINK-35888

NORAD 67190 · 2025-303AD

PAYLOAD ACTIVE UNKNOWN

§ Identity

Operator
Country
US
Launch date
2025-12-17
Launch site
AFETR
Launch vehicle
Mass (kg)
RCS (m²)

Purposes: comms

External: N2YO · Heavens-Above · Gunter

§ Orbital elements

Epoch: 2026-05-24T14:38:41.041536Z

Period
94.27 min
Inclination
43.0002°
Eccentricity
0.0001687
Mean motion
15.27590054 rev/d
Perigee alt
481.9 km
Apogee alt
484.2 km
Semi-major
6,861.2 km
B*
5.4648e-4
RAAN
242.1743°
Arg perigee
271.3333°
Mean anomaly
88.7326°
Rev number
2,434

§ Raw data

STARLINK-358881 67190U 25303AD  26144.61019724  .00014811  00000+0  54648-3 0  99972 67190  43.0002 242.1743 0001687 271.3333  88.7326 15.27590054 24346

JSON: /api/v1/satellites/67190 · /tle

For live sub-satellite position, see the globe view (requires WebGL).

§ Visibility from observer

Set your observer location to see the next 7 days of passes ≥ 10°. The values pass through the URL so the page stays shareable.

No JS? Fill the form by hand. The geolocation button needs JavaScript.